www.pogodaiklimat.ru

Погода и климат >> Архив погоды >> Италия >> Аэропорт Мальпенса


ПОГОДА в Аэропорту Мальпенса

  • Прогноз погоды в Аэропорту Мальпенса
  • Монитор погоды в Аэропорту Мальпенса

АРХИВ ПОГОДЫ в Аэропорту Мальпенса

Время (UTC), дата Ветер
(напр.,м/с)
 
Видим.   Явления Облачность Т
(С)
Тd
(С)
f
(%)
Тe
(С)
Тes
(С)
Комфортность P
(гПа)
Po
(гПа)
Тmin
(С)
Tmax
(С)
R
(мм)
R24
(мм)
S
(см)
00 19.08 З 2 20 км 8/8 2000 м
[Sc diur, vesp]
+23.9 +19.1 75 +29 +29 душно 1016.2 988.3
03 19.08 Ю 1 20 км 8/8 2000 м
[Sc diur, vesp]
+21.7 +19.1 85 +27 +27 душно 1015.7 987.8
06 19.08 ЮВ 2 30 км 8/8 1500 м
[Sc]
+22.4 +18.3 78 +28 +28 душно 1016.5 988.6 +20.9
06 20.08 С 3 15 км 5/5 1500 м
[Cu Sc]
+21.2 +21.1 99 +27 +27 душно 1018.4 990.5 +20.5
09 20.08 СВ 2 н/о н/о +24.3 +19.5 75 +30 +30 очень
душно
1019.2 991.2
12 20.08 С 4 25 км 9/5 1170 м
[Cu Sc]
+26.4 +20.4 70 +33 +36 очень
душно
1018.5 990.5
18 20.08 С 5 20 км 9/1 2000 м
[Cu med, cong Ac cuf]
+22.8 +18.4 76 +28 +28 душно 1018.2 990.3 +26.8
06 21.08 С 3 30 км 4/0 2000 м
[Ac trans]
+20.1 +14.4 70 +23 +23 комфорт 1019.5 991.6 +17.8 0.6
09 21.08 С 4 30 км 3/3 1200 м
[Cu hum]
+25.9 +14.6 50 +28 +34 жарко 1020.2 992.2
12 21.08 нст 2 55 км 5/5 1500 м
[Cu med, cong]
+29.4 +16.0 44 +32 +40 душно 1019.5 991.6
15 21.08 нст 2 30 км 8/4 1500 м
[Cu med, cong Ac cast]
+30.4 +15.7 41 +33 +35 душно 1018.3 990.4
18 21.08 СЗ 3 25 км 6/0
[Ac lent]
+28.6 +17.7 52 +33 +33 очень
душно
1018.5 990.5 +31.6
21 21.08 С 3 20 км 5/0
[Ac As]
+23.7 +18.2 71 +28 +28 душно 1020.2 992.2
00 22.08 В 4 20 км гроза без осадков 6/6 1500 м
[Cb calv]
+24.3 +18.1 68 +29 +29 душно 1021.1 993.1
03 22.08 С 4 20 км гроза без осадков 8/8 1500 м
[Cb calv]
+22.4 +18.7 80 +28 +28 душно 1021.8 993.8
06 22.08 СВ 2 25 км 10/10 1500 м
[Cu Sc]
+21.0 +16.2 74 +25 +25 комфорт 1022.6 994.6 +20.9
09 22.08 С 3 25 км 8/0
[Ac cuf]
+24.0 +18.5 71 +28 +32 душно 1023.0 995.0
12 22.08 нст 3 30 км 3/3 1500 м
[Cu hum]
+27.9 +14.9 45 +30 +40 жарко 1022.4 994.4
15 22.08 СЗ 3 30 км 4/1 1500 м
[Cu hum Cs]
+29.6 +15.7 43 +32 +37 душно 1020.6 992.6
18 22.08 З 4 30 км 4/0
[Cc]
+25.6 +16.4 57 +29 +29 душно 1020.8 992.9 +30.2
21 22.08 С 2 25 км ясно +20.9 +16.5 76 +25 +25 комфорт 1021.9 993.9
00 23.08 СВ 2 25 км ясно +18.8 +17.6 93 +21 +21 комфорт 1021.9 993.9
03 23.08 С 3 30 км ясно +18.4 +18.2 99 +19 +19 по сезону 1021.3 993.3
06 23.08 С 2 25 км ясно +19.0 +19.0 100 +21 +22 комфорт 1022.6 994.6 +17.6
09 23.08 СВ 3 25 км 5/0
[As trans Cs]
+24.8 +18.6 68 +29 +36 душно 1023.4 995.4
12 23.08 нст 3 20 км 4/4 1500 м
[Sc diur, vesp]
+27.8 +16.6 51 +31 +39 душно 1022.9 994.9
15 23.08 СВ 2 20 км 8/8 1500 м
[Sc diur, vesp]
+26.8 +18.4 60 +32 +33 очень
душно
1021.9 993.9
18 23.08 С 3 20 км ясно +26.0 +18.0 61 +30 +30 душно 1021.4 993.5 +28.3
21 23.08 С 2 30 км 6/0
[Ac As]
+21.1 +18.7 86 +25 +25 комфорт 1021.9 993.9
00 24.08 С 2 25 км ясно +19.1 +19.1 100 +22 +22 комфорт 1022.1 994.1
03 24.08 С 3 25 км ясно +17.5 +17.5 100 +18 +18 по сезону 1021.5 993.5
06 24.08 нст 1 20 км 5/5 1500 м
[Cu Sc]
+18.8 +18.8 100 +21 +22 комфорт 1021.6 993.6 +17.4
09 24.08 С 2 20 км ясно +26.0 +17.6 60 +30 +41 душно 1021.6 993.6
12 24.08 СЗ 3 15 км 8/8 1500 м
[Cu med, cong]
+28.4 +15.3 45 +31 +34 душно 1020.3 992.3
15 24.08 З 3 15 км 5/5 1500 м
[Cu med, cong]
+30.6 +16.0 41 +33 +36 душно 1018.6 990.7
18 24.08 ЮЗ 3 20 км 3/0
[Ci sp]
+27.8 +17.3 53 +32 +32 душно 1017.9 990.0 +31.2
21 24.08 С 2 20 км ясно +22.2 +18.5 80 +27 +27 душно 1018.9 990.9
00 25.08 В 2 20 км ясно +21.2 +18.5 85 +26 +26 душно 1019.8 991.8
03 25.08 СВ 2 20 км ясно +19.5 +18.4 93 +23 +23 комфорт 1019.0 991.1
06 25.08 С 2 20 км ясно +20.3 +19.6 96 +25 +26 комфорт 1019.1 991.2 +18.1
09 25.08 15 км ясно +26.8 +17.5 57 1019.9 991.9
12 25.08 нст 2 15 км 4/4 1200 м
[Cu hum]
+29.4 +17.0 47 +33 +42 душно 1018.8 990.8
15 25.08 ЮЗ 2 15 км 1/1 1500 м
[Cu hum]
+30.8 +16.5 42 +34 +40 очень
душно
1017.2 989.3
18 25.08 ЮЗ 3 20 км ясно +28.3 +16.6 49 +32 +32 душно 1017.7 989.8 +31.0

 

Местоположение метеостанции Аэропорт Мальпенса (Италия): широта 45.62 долгота 8.73 высота над уровнем моря 211 м.

В архиве по умолчанию представлена погода в Аэропорту Мальпенса за последнюю неделю. Архивные данные за месяц целиком и за предыдущие месяцы, начиная с января 2011 года, Вы можете получить, выбрав интересующий диапазон дат из раскрывающегося списка и нажав кнопку "Ввод!".


*Определитесь, кто Вы:
робот инопланетянин человек

Внимание! Время в таблицах - всемирное. Для получения местного времени необходимо прибавить поправку, которая равна 1 ч.

Смотрите также архив погоды в соседних городах и на ближайших метеорологических станциях:

Погода в Новара (Италия) (12 км)
Погода в Стабио (Швейцария) (30 км)
Погода на Монте-Дженеросо (Швейцария) (41 км)
Погода в Лугано (Швейцария) (46 км)
Погода в Милане (Италия) (48 км)
Погода в Казале-Монферрато (Италия) (59 км)
Погода в Локарно-Монти (Швейцария) (61 км)
Погода в Локарно-Магадино (Швейцария) (62 км)
Погода на Циметте (Швейцария) (65 км)
Погода в Бергамо (Италия) (76 км)

Пояснения к столбцам:

Ветер - указаны скорость ветра в м/с - средняя за 10 мин, порывы в срок и между сроками (в фигурных скобках) и направление, откуда дует ветер: С - северный, СВ - северо-восточный, В - восточный, ЮВ - юго-восточный, Ю - южный, ЮЗ - юго-западный, З - западный, СЗ - северо-западный.
Видимость - горизонтальная дальность видимости в метрах или километрах. При видимости от 1 до 10 км при отсутствии осадков обычно наблюдается дымка, при ухудшении видимости до 1 км и менее - туман. В сухую погоду видимость может ухудшаться дымом, пылью или мглою.
Явления - указаны атмосферные явления, наблюдавшиеся в срок или в последний час перед сроком; фигурными скобками обозначены явления, наблюдавшиеся между сроками (за 1-3 часа до срока); квадратными скобками обозначены град или гололедные отложения с указанием их диаметра в мм.
Облачность - указаны через наклонную черту общая и нижняя облачность в баллах и высота нижней границы облаков в метрах; квадратными скобками обозначены формы облаков: Ci - перистые, Cs - перисто-слоистые, Cc - перисто-кучевые, Ac - высококучевые, As - высокослоистые, Sc - слоисто-кучевые, Ns - слоисто-дождевые, Cu - кучевые, Cb - кучево-дождевые. Подробнее классификацию облаков см. в Атласе облаков (PDF).
T - Температура воздуха - температура, измеренная на высоте 2 м над землей.
Td - Температура точки росы - температура, при понижении до которой содержащийся в воздухе водяной пар достигнет насыщения.
f - Относительная влажность воздуха - влажноcть воздуха, измеренная на высоте 2 м над землей.
Te - Эффективная температура - температура, которую ощущает одетый по сезону человек в тени. Характеристика душности погоды. При расчете учитывается влияние влажности воздуха и скорости ветра на теплоощущения человека.
Tes - Эффективная температура на солнце - температура, которую ощущает человек, с поправкой на солнечный нагрев. Характеристика знойности погоды. Зависит от высоты солнца над горизонтом, облачности и скорости ветра. Ночью, в пасмурную погоду, а также при ветре 12 м/с и более поправка равна нулю.
P - Атмосферное давление - приведенное к уровню моря атмосферное давление.
Po - Атмосферное давление - измеренное на уровне метеостанции атмосферное давление.
Tmin - Минимальная температура - минимум температуры воздуха на высоте 2 м над землей.
Tmax - Максимальная температура - максимум температуры воздуха на высоте 2 м над землей.
R - Количество осадков - Количество выпавших осадков за период времени, мм. При наведении курсора мыши на число - период времени, за который выпало указанное количество осадков.
R24 - Количество осадков - Количество выпавших осадков за 24 часа, мм.
S - Снежный покров - Высота снежного покрова, см. При наведении курсора мыши на число - состояние снежного покрова и степень покрытия местности в баллах.